Weather History for PAZK - October, 2011

Change the Weather History Date:

Friday, October 14, 2011

  Actual Average Record
Temperature  
Mean Temperature 29 °F -  
Max Temperature 39 °F 26 °F 39 °F (2011)
Min Temperature 19 °F 16 °F 8 °F (1996)
Degree Days  
Heating Degree Days 36    
Moisture  
Dew Point 22 °F    
Average Humidity 81    
Maximum Humidity 93    
Minimum Humidity 56    
Precipitation  
Precipitation 0.00 in - - ()
Sea Level Pressure  
Sea Level Pressure 29.54 in    
Wind  
Wind Speed 7 mph (NE)    
Max Wind Speed 13 mph    
Max Gust Speed 18 mph    
Visibility 10 miles    
Events      
Averages and records for this station are not official NWS values.
T = Trace of Precipitation, MM = Missing Value Source: NWS Daily Summary

Daily Weather History Graph

Daily Weather History Graph

Search for Another Location

Airport or City:

Trip Planner

Search our weather history database for the weather conditions in past years. The results will help you decide how hot, cold, wet, or windy it might be!

Date:

Astronomy

Oct. 14, 2011 Rise Set
Actual Time 8:29 AM AKDT 6:38 PM AKDT
Civil Twilight 7:45 AM AKDT 7:22 PM AKDT
Nautical Twilight 6:53 AM AKDT 8:13 PM AKDT
Astronomical Twilight 6:01 AM AKDT 9:05 PM AKDT
Moon 6:42 PM AKDT (10/14) 12:20 PM AKDT (10/14)
Length of Visible Light 11h 37m
Length of Day
10h 08m
Waning Gibbous, 93% of the Moon is Illuminated
Oct 14
Waning Gibbous
Oct 19
Last Quarter
Oct 26
New
Nov 2
First Quarter
Nov 10
Full

Hourly Weather History & Observations

Time (AKDT) Temp. Windchill Dew Point Humidity Pressure Visibility Wind Dir Wind Speed Gust Speed Precip Events Conditions
12:16 AM 21.2 °F 13.6 °F 19.4 °F 93% 29.77 in 10.0 mi NNE 5.8 mph - N/A   Clear
12:36 AM 21.2 °F 14.9 °F 19.4 °F 93% 29.77 in 10.0 mi NNE 4.6 mph - N/A   Clear
12:56 AM 21.2 °F 12.6 °F 19.4 °F 93% 29.76 in 10.0 mi NE 6.9 mph - N/A   Clear
1:16 AM 21.2 °F 14.9 °F 19.4 °F 93% 29.75 in 10.0 mi NNE 4.6 mph - N/A   Clear
1:36 AM 21.2 °F 13.6 °F 17.6 °F 86% 29.75 in 10.0 mi NE 5.8 mph - N/A   Clear
1:56 AM 21.2 °F 13.6 °F 19.4 °F 93% 29.73 in 10.0 mi NNE 5.8 mph - N/A   Clear
2:16 AM 21.2 °F 13.6 °F 17.6 °F 86% 29.72 in 10.0 mi NNE 5.8 mph - N/A   Partly Cloudy
2:36 AM 19.4 °F 11.5 °F 17.6 °F 93% 29.71 in 10.0 mi NE 5.8 mph - N/A   Clear
2:56 AM 19.4 °F 12.8 °F 17.6 °F 93% 29.71 in 10.0 mi ENE 4.6 mph - N/A   Partly Cloudy
3:16 AM 19.4 °F 14.3 °F 17.6 °F 93% 29.70 in 10.0 mi NE 3.5 mph - N/A   Partly Cloudy
3:36 AM 21.2 °F - 17.6 °F 86% 29.69 in 10.0 mi Calm Calm - N/A   Clear
3:56 AM 21.2 °F - 17.6 °F 86% 29.68 in 10.0 mi Calm Calm - N/A   Clear
4:16 AM 19.4 °F - 15.8 °F 86% 29.66 in 10.0 mi Calm Calm - N/A   Clear
4:36 AM 19.4 °F 14.3 °F 17.6 °F 93% 29.65 in 10.0 mi East 3.5 mph - N/A   Clear
4:56 AM 19.4 °F 14.3 °F 17.6 °F 93% 29.64 in 10.0 mi NE 3.5 mph - N/A   Mostly Cloudy
5:16 AM 21.2 °F 12.6 °F 19.4 °F 93% 29.62 in 10.0 mi NNE 6.9 mph - N/A   Mostly Cloudy
5:36 AM 19.4 °F 10.4 °F 17.6 °F 93% 29.61 in 10.0 mi NNE 6.9 mph - N/A   Partly Cloudy
5:56 AM 19.4 °F 10.4 °F 17.6 °F 93% 29.60 in 10.0 mi NNE 6.9 mph - N/A   Clear
6:16 AM 19.4 °F 9.5 °F 17.6 °F 93% 29.59 in 10.0 mi NE 8.1 mph - N/A   Clear
6:36 AM 21.2 °F 13.6 °F 17.6 °F 86% 29.58 in 10.0 mi NNE 5.8 mph - N/A   Clear
6:56 AM 21.2 °F 12.6 °F 17.6 °F 86% 29.57 in 10.0 mi NE 6.9 mph - N/A   Clear
7:16 AM 21.2 °F 10.9 °F 17.6 °F 86% 29.55 in 10.0 mi NE 9.2 mph - N/A   Clear
7:36 AM 21.2 °F 10.1 °F 17.6 °F 86% 29.55 in 10.0 mi NE 10.4 mph - N/A   Clear
7:56 AM 21.2 °F 12.6 °F 19.4 °F 93% 29.54 in 10.0 mi NNE 6.9 mph - N/A   Partly Cloudy
8:16 AM 24.8 °F 16.1 °F 19.4 °F 80% 29.53 in 10.0 mi NNE 8.1 mph - N/A   Mostly Cloudy
8:36 AM 24.8 °F 15.3 °F 19.4 °F 80% 29.53 in 10.0 mi NE 9.2 mph - N/A   Scattered Clouds
8:56 AM 23.0 °F 13.1 °F 19.4 °F 86% 29.52 in 10.0 mi NE 9.2 mph - N/A   Clear
9:16 AM 23.0 °F 13.9 °F 19.4 °F 86% 29.51 in 10.0 mi NNE 8.1 mph - N/A   Clear
9:36 AM 23.0 °F 13.1 °F 21.2 °F 93% 29.51 in 10.0 mi NE 9.2 mph - N/A   Clear
9:56 AM 24.8 °F 15.3 °F 21.2 °F 86% 29.50 in 10.0 mi NE 9.2 mph - N/A   Partly Cloudy
10:16 AM 24.8 °F 16.1 °F 21.2 °F 86% 29.50 in 10.0 mi NE 8.1 mph - N/A   Partly Cloudy
10:36 AM 26.6 °F 16.2 °F 23.0 °F 86% 29.49 in 10.0 mi NNE 11.5 mph - N/A   Clear
10:56 AM 26.6 °F 17.5 °F 24.8 °F 93% 29.49 in 10.0 mi NNE 9.2 mph - N/A   Clear
11:16 AM 28.4 °F 20.4 °F 24.8 °F 86% 29.49 in 10.0 mi NNE 8.1 mph 16.1 mph N/A   Clear
11:36 AM 28.4 °F 19.1 °F 24.8 °F 86% 29.49 in 10.0 mi NNE 10.4 mph - N/A   Partly Cloudy
11:56 AM 28.4 °F 19.7 °F 24.8 °F 86% 29.48 in 10.0 mi NNE 9.2 mph - N/A   Clear
12:16 PM 30.2 °F 21.9 °F 24.8 °F 80% 29.48 in 10.0 mi NNE 9.2 mph - N/A   Clear
12:36 PM 30.2 °F 21.3 °F 24.8 °F 80% 29.48 in 10.0 mi NNE 10.4 mph - N/A   Clear
12:56 PM 30.2 °F 22.6 °F 26.6 °F 86% 29.47 in 10.0 mi NNE 8.1 mph - N/A   Clear
1:16 PM 32.0 °F 24.2 °F 26.6 °F 80% 29.46 in 10.0 mi NNE 9.2 mph - N/A   Clear
1:36 PM 33.8 °F 26.4 °F 26.6 °F 75% 29.45 in 10.0 mi NE 9.2 mph - N/A   Clear
1:56 PM 35.6 °F 27.5 °F 26.6 °F 70% 29.45 in 10.0 mi NNE 11.5 mph - N/A   Clear
2:16 PM 35.6 °F 28.6 °F 26.6 °F 70% 29.44 in 10.0 mi NE 9.2 mph - N/A   Clear
2:36 PM 35.6 °F 29.2 °F 26.6 °F 70% 29.43 in 10.0 mi NNE 8.1 mph - N/A   Clear
2:56 PM 35.6 °F 31.7 °F 26.6 °F 70% 29.43 in 10.0 mi ENE 4.6 mph - N/A   Clear
3:16 PM 37.4 °F 32.8 °F 26.6 °F 65% 29.42 in 10.0 mi NE 5.8 mph - N/A   Clear
3:36 PM 37.4 °F 34.9 °F 24.8 °F 60% 29.42 in 10.0 mi East 3.5 mph - N/A   Clear
3:56 PM 39.2 °F 33.6 °F 24.8 °F 56% 29.41 in 10.0 mi SE 8.1 mph - N/A   Clear
4:16 PM 37.4 °F 30.8 °F 24.8 °F 60% 29.41 in 10.0 mi ESE 9.2 mph - N/A   Clear
4:36 PM 37.4 °F 33.8 °F 24.8 °F 60% 29.40 in 10.0 mi ESE 4.6 mph - N/A   Clear
4:56 PM 39.2 °F 32.5 °F 24.8 °F 56% 29.40 in 10.0 mi ESE 10.4 mph - N/A   Clear
5:16 PM 39.2 °F 32.5 °F 24.8 °F 56% 29.40 in 10.0 mi SSE 10.4 mph - N/A   Clear
5:36 PM 37.4 °F 29.3 °F 24.8 °F 60% 29.39 in 10.0 mi ESE 12.7 mph 16.1 mph N/A   Clear
5:56 PM 37.4 °F 29.8 °F 24.8 °F 60% 29.38 in 10.0 mi SSE 11.5 mph 18.4 mph N/A   Clear
6:16 PM 37.4 °F 31.4 °F 24.8 °F 60% 29.38 in 10.0 mi ESE 8.1 mph - N/A   Clear
6:36 PM 35.6 °F 28.6 °F 24.8 °F 65% 29.38 in 10.0 mi ESE 9.2 mph 16.1 mph N/A   Clear
6:56 PM 35.6 °F 28.6 °F 24.8 °F 65% 29.37 in 10.0 mi SE 9.2 mph - N/A   Clear
7:16 PM 35.6 °F 31.7 °F 24.8 °F 65% 29.38 in 10.0 mi East 4.6 mph - N/A   Clear
7:36 PM 33.8 °F 27.0 °F 24.8 °F 70% 29.37 in 10.0 mi ENE 8.1 mph - N/A   Clear
7:56 PM 35.6 °F 27.5 °F 26.6 °F 70% 29.38 in 10.0 mi ENE 11.5 mph 18.4 mph N/A   Clear
8:16 PM 33.8 °F 25.8 °F 26.6 °F 75% 29.38 in 10.0 mi ENE 10.4 mph - N/A   Clear
8:36 PM 32.0 °F 27.5 °F 26.6 °F 80% 29.39 in 10.0 mi ENE 4.6 mph - N/A   Clear
8:56 PM 32.0 °F 23.0 °F 26.6 °F 80% 29.38 in 10.0 mi ENE 11.5 mph - N/A   Clear
9:16 PM 33.8 °F 25.3 °F 26.6 °F 75% 29.39 in 10.0 mi NE 11.5 mph 18.4 mph N/A   Clear
9:36 PM 33.8 °F 24.8 °F 26.6 °F 75% 29.39 in 10.0 mi NE 12.7 mph 18.4 mph N/A   Partly Cloudy
9:56 PM 33.8 °F 23.9 °F 26.6 °F 75% 29.39 in 10.0 mi NE 15.0 mph - N/A   Clear
10:16 PM 33.8 °F 25.3 °F 26.6 °F 75% 29.39 in 10.0 mi ENE 11.5 mph - N/A   Clear
10:36 PM 32.0 °F 22.5 °F 26.6 °F 80% 29.39 in 10.0 mi NE 12.7 mph 19.6 mph N/A   Clear
10:56 PM 32.0 °F 23.6 °F 26.6 °F 80% 29.39 in 10.0 mi NE 10.4 mph - N/A   Clear
11:16 PM 32.0 °F 24.8 °F 24.8 °F 75% 29.40 in 10.0 mi NE 8.1 mph - N/A   Partly Cloudy
11:36 PM 30.2 °F 21.9 °F 24.8 °F 80% 29.40 in 10.0 mi NE 9.2 mph - N/A   Mostly Cloudy
11:56 PM 30.2 °F 21.9 °F 24.8 °F 80% 29.41 in 10.0 mi NE 9.2 mph - N/A   Mostly Cloudy